Regional Weather Roundup
Issued by NWS

Home | Current Version | Previous Version | Graphics & Text | Print | Product List | Glossary On
Versions: 1 2 3 4 5 6 7 8 9 10 11 12 13 14 15 16 17 18 19 20 21 22 23 24 25 26 27 28 29 30 31 32 33 34 35 36 37 38 39 40 41 42 43 44 45 46 47 48 49 50
000
ASUS45 KCYS 261010
RWRWY

WYOMING REGIONAL WEATHER ROUNDUP
NATIONAL WEATHER SERVICE CHEYENNE WY
300 AM MST THU FEB 26 2015

NOTE:  "FAIR" INDICATES FEW OR NO CLOUDS BELOW 12,000 FEET
WITH NO SIGNIFICANT WEATHER AND/OR OBSTRUCTIONS TO VISIBILITY.

WYZ001-261100-
YELLOWSTONE NATIONAL PARK

CITY           SKY/WX    TMP DP  RH WIND       PRES   REMARKS
LK YELLOWSTONE   N/A     -4  -9  79 CALM      30.02F
W YELLOWSTONE  NOT AVBL

$$
WYZ002>013-054>058-071-098>099-261100-
NORTHERN WYOMING

CITY           SKY/WX    TMP DP  RH WIND       PRES   REMARKS
JACKSON        FAIR      10   5  79 N7        30.03F WCI   0
CODY           CLOUDY    10   9  92 N12       30.18S WCI  -4
GREYBULL       CLOUDY    16   3  56 NW9       30.23F WCI   4
WORLAND        LGT SNOW  16  11  80 N8        30.22F WCI   5
SHERIDAN       CLOUDY     8   4  83 N5        30.30F WCI   0
BUFFALO        LGT SNOW   7   3  84 N5        30.21F FOG     WCI  -2
GILLETTE       CLOUDY     4   0  83 N7        30.26F WCI  -8
HULETT         LGT SNOW   5   1  85 CALM      30.28F
NEWCASTLE      FAIR       5   0  78 NW8       30.27S WCI  -8

$$
WYZ014>020-022>026-101>103-261100-
CENTRAL WYOMING

CITY           SKY/WX    TMP DP  RH WIND       PRES   REMARKS
BIG PINEY      CLOUDY    18  14  84 SE12      30.03F WCI   5
PINEDALE       LGT SNOW  16  14  93 CALM      30.05S
DUBOIS         FLURRIES  10   5  79 NW9       30.01F WCI  -2
LANDER         CLOUDY    17  14  88 CALM      30.10F
RIVERTON       CLOUDY    13   9  84 NE7       30.12F WCI   3
CASPER         CLOUDY    10   4  76 E8        30.16F WCI  -2
DOUGLAS        FLURRIES  10   4  76 N8        30.21F WCI  -2

$$
WYZ021-027>030-104>119-261100-
SOUTHERN WYOMING

CITY           SKY/WX    TMP DP  RH WIND       PRES   REMARKS
EVANSTON       FAIR      21  15  78 S5        29.99F WCI  15
FORT BRIDGER   PTSUNNY   19  19  98 CALM      30.04F
ROCK SPRINGS   FAIR      12   6  77 E5        30.05F WCI   4
DIXON          FAIR      16  10  80 E7        30.07F WCI   6
RAWLINS        CLOUDY    15  11  83 S5        30.05F WCI   8
SARATOGA       LGT SNOW  12  10  92 CALM      30.05S
LARAMIE        FAIR       6   3  87 NE3       30.00F
CHEYENNE       CLOUDY     8   3  80 N9        30.09F WCI  -5
TORRINGTON     CLOUDY    12   2  64 N14       30.24S WCI  -3
PINE BLUFFS    CLOUDY    10   5  79 N13       30.17F WCI  -5

$$



USA.gov is the U.S. government's official web portal to all federal, state and local government web resources and services.